Wind_Speed
25 25 25 25 25 25 24 25 26 26 26 27 27 27 27 27 28 28 28 28 29 30 31 32 32 33 34 34 34 34 35 36 36 37 38 38 39 39
23 24 24 25 26 25 25 24 24 26 26 26 26 26 27 27 27 28 28 28 29 29 30 31 33 34 35 36 36 36 36 37 37 38 39 40 40 40
22 23 23 24 25 25 24 24 24 24 25 26 26 26 27 27 26 27 27 27 28 29 30 31 32 34 35 35 36 37 37 37 38 38 39 40 41 41
22 22 23 23 23 23 24 24 24 24 24 24 25 26 26 26 26 26 26 26 28 29 29 30 31 33 34 35 36 37 38 38 39 39 40 40 41 42
21 21 21 23 23 23 23 23 23 23 24 24 24 24 24 25 25 26 26 27 28 29 29 29 30 31 32 34 36 37 38 38 39 39 40 41 42 43
20 20 21 21 22 22 22 23 23 23 23 23 23 23 23 24 25 26 27 27 27 27 28 28 29 30 31 32 34 35 36 36 37 38 39 40 41 42
20 21 20 20 20 21 22 23 23 23 23 23 23 23 23 24 25 26 26 26 26 27 28 28 29 29 29 30 31 32 34 35 36 37 39 40 40 41
20 19 20 20 20 21 21 21 21 22 23 23 22 23 23 24 24 24 25 26 27 28 28 28 29 29 30 29 30 31 33 34 36 37 38 39 40 41
19 20 20 20 21 21 21 21 21 21 22 21 21 21 22 22 23 24 25 25 26 26 27 28 28 28 29 30 30 30 31 33 34 35 37 37 38 39
20 19 19 19 20 20 20 20 20 20 20 20 20 21 22 22 22 22 23 24 24 24 26 27 28 29 29 30 30 30 30 31 32 33 35 35 36 37
18 18 18 19 20 19 19 18 18 19 19 20 20 20 21 21 21 22 22 23 23 24 25 26 27 28 28 28 28 29 29 29 30 32 33 33 34 34
17 17 17 17 18 19 20 19 18 18 19 19 20 20 20 21 21 21 22 23 23 24 24 25 26 27 26 26 27 27 27 28 28 29 30 31 32 32
16 17 17 16 17 18 18 18 18 19 19 19 20 20 20 21 22 22 22 23 23 24 25 25 26 26 26 26 26 26 26 27 27 27 27 29 30 31
15 16 17 17 17 17 18 18 19 19 19 19 20 20 21 21 22 22 23 23 23 24 24 24 25 25 25 25 25 25 26 26 27 26 26 27 28 29
15 15 16 16 17 18 18 19 19 19 19 20 20 20 21 22 22 23 23 23 23 23 23 24 24 24 24 24 24 25 26 26 25 25 25 25 25 26
14 15 15 15 15 16 17 18 19 20 20 20 20 20 21 20 21 21 21 22 22 21 22 22 22 22 23 23 23 24 25 25 24 23 23 23 23 24
13 13 13 14 15 15 16 18 19 19 19 19 19 19 19 19 19 20 20 20 20 20 21 21 22 22 22 22 23 23 23 23 23 22 22 22 22 23
13 13 13 14 14 15 15 16 16 17 18 18 17 18 18 18 19 19 19 19 19 19 19 20 21 21 22 21 21 21 22 22 22 21 21 21 21 22
12 12 12 13 14 14 14 15 15 16 16 16 16 17 17 17 18 19 19 19 19 19 19 20 20 20 20 20 20 20 21 21 21 20 20 20 20 20
11 11 12 12 13 14 14 14 15 15 15 16 16 16 17 17 18 19 19 19 19 19 20 20 20 20 19 18 19 19 19 18 19 19 18 18 17 17
11 12 12 12 13 13 13 13 14 14 14 15 16 17 17 18 19 19 20 19 19 19 20 19 19 18 17 17 17 16 17 16 16 16 16 16 16 16
11 11 12 12 12 12 12 12 12 13 13 14 15 16 17 18 19 19 19 18 18 18 18 18 17 16 16 16 16 15 16 15 15 15 15 15 15 14
12 12 12 12 11 11 11 12 13 13 14 14 15 15 16 17 18 18 17 16 16 17 17 17 16 15 15 15 15 14 14 13 13 14 14 14 14 15
Wind_Direction
268 265 263 263 264 265 265 264 262 260 257 257 259 262 262 264 265 265 263 261 261 262 262 261 260 258 257 257 257 257 257 257 257 256 256 255 255 257
271 267 265 263 263 263 264 265 264 261 259 259 261 264 265 266 267 266 264 263 262 263 263 262 260 259 259 259 258 258 258 258 257 257 257 256 255 257
270 268 266 263 262 263 264 263 263 263 260 259 261 264 265 266 267 267 267 265 262 263 265 265 263 262 261 261 260 259 259 259 259 259 258 257 256 256
270 268 264 261 262 262 263 262 262 264 262 259 261 264 266 267 267 266 265 265 265 264 265 265 265 265 263 264 263 262 261 261 260 259 259 258 258 257
270 267 263 261 262 264 263 262 262 263 264 263 263 264 265 267 266 266 266 267 267 266 266 267 267 267 268 267 265 264 264 262 260 260 259 259 259 258
270 268 264 263 263 263 263 262 262 264 264 264 266 266 266 267 267 267 268 270 270 268 268 270 270 269 270 269 267 266 265 263 261 261 260 260 260 259
269 270 267 264 263 264 264 264 263 262 263 264 266 267 268 268 269 269 269 269 269 268 269 271 271 272 273 272 270 268 266 265 264 263 262 261 261 261
270 269 265 262 263 263 264 264 262 261 262 264 266 267 268 270 272 272 272 271 269 269 270 272 273 274 274 274 274 271 268 268 267 266 265 263 263 263
270 268 265 263 263 261 262 264 263 262 263 265 266 268 269 270 272 273 272 273 273 273 272 273 275 276 276 277 276 275 272 271 269 267 267 266 265 265
270 268 266 265 264 263 262 264 262 262 264 266 268 269 271 272 273 273 272 273 275 275 276 276 277 277 277 277 277 276 276 274 272 271 271 268 267 266
270 266 267 265 265 263 264 263 262 262 264 266 269 271 271 273 274 273 274 277 278 277 278 278 279 279 278 278 278 277 277 276 275 274 273 271 268 266
271 268 269 268 265 265 264 262 263 265 268 268 269 270 271 273 274 277 279 281 282 280 280 280 280 280 278 279 281 279 278 279 279 278 275 273 271 268
275 271 267 266 268 267 265 263 264 267 272 272 269 270 272 274 276 278 280 282 282 283 281 281 281 281 281 282 283 281 280 282 283 282 278 276 274 272
277 273 270 267 268 267 264 264 267 269 270 270 270 270 272 275 277 279 282 283 284 286 284 282 284 282 282 283 283 283 283 283 285 284 282 280 278 275
283 281 276 270 267 269 268 265 266 268 269 271 273 273 273 274 275 278 281 284 285 285 284 283 284 284 282 282 282 283 285 285 286 284 282 282 280 278
286 285 281 276 273 271 269 268 267 269 269 271 274 274 276 277 279 281 285 286 285 285 286 286 286 286 285 285 285 285 286 286 287 286 282 282 281 279
293 293 290 285 282 279 274 273 272 270 271 272 274 276 277 279 281 284 287 289 289 288 289 287 286 287 287 287 286 284 285 286 285 284 282 283 282 280
294 295 293 287 286 283 278 276 273 271 273 273 272 275 277 279 283 286 288 290 291 291 291 292 291 290 288 286 286 286 285 287 286 283 283 283 283 283
294 296 295 291 289 287 282 278 274 275 275 276 275 275 277 278 280 284 287 289 290 293 293 292 294 295 292 288 288 289 289 288 285 284 285 284 283 282
298 299 298 294 291 288 282 279 276 276 278 280 278 278 278 280 282 285 288 288 288 290 293 294 293 296 295 292 291 290 290 290 288 285 284 284 283 282
302 302 301 298 294 289 285 282 278 278 281 282 283 282 281 282 284 285 288 287 287 288 291 294 294 295 294 294 294 294 293 290 289 288 285 284 285 284
301 302 304 305 300 293 290 287 283 281 283 285 285 285 285 287 288 289 290 288 288 290 291 293 295 294 294 293 295 298 296 293 292 291 289 287 286 286
298 298 303 307 305 300 296 292 288 285 287 290 289 288 289 292 294 294 294 290 290 291 293 294 294 292 293 294 298 301 298 296 295 295 292 288 286 288
Height
5739 5740 5741 5742 5742 5743 5743 5744 5746 5746 5748 5748 5749 5750 5750 5751 5751 5752 5752 5753 5754 5754 5755 5755 5756 5757 5758 5759 5760 5761 5763 5764 5765 5767 5768 5769 5771 5773
5732 5732 5733 5734 5735 5736 5736 5737 5738 5739 5740 5741 5742 5742 5743 5743 5744 5744 5744 5745 5745 5746 5746 5746 5747 5748 5749 5749 5750 5751 5753 5754 5755 5756 5757 5759 5760 5762
5725 5725 5726 5727 5728 5728 5729 5730 5731 5732 5733 5734 5734 5735 5735 5735 5736 5736 5736 5736 5737 5737 5737 5737 5737 5738 5739 5739 5740 5741 5742 5743 5744 5745 5746 5747 5749 5750
5719 5719 5719 5720 5721 5722 5722 5723 5724 5725 5726 5726 5727 5727 5728 5728 5728 5728 5728 5728 5728 5729 5729 5729 5728 5728 5729 5729 5729 5730 5731 5731 5732 5734 5735 5736 5737 5738
5712 5712 5712 5713 5714 5715 5715 5716 5717 5718 5719 5719 5720 5720 5720 5720 5720 5720 5720 5720 5720 5720 5720 5720 5720 5720 5719 5719 5719 5719 5719 5720 5721 5721 5722 5723 5724 5725
5706 5706 5706 5706 5707 5708 5708 5709 5710 5711 5711 5712 5712 5712 5712 5712 5712 5713 5712 5712 5712 5712 5712 5711 5711 5710 5710 5709 5709 5708 5708 5708 5708 5709 5710 5711 5711 5712
5700 5700 5700 5700 5700 5701 5701 5702 5703 5704 5704 5705 5705 5705 5705 5705 5705 5705 5705 5704 5704 5703 5703 5703 5702 5702 5700 5699 5698 5697 5697 5696 5697 5697 5698 5698 5699 5699
5694 5694 5694 5694 5694 5694 5694 5695 5696 5697 5698 5698 5698 5698 5698 5698 5698 5697 5697 5696 5696 5696 5695 5694 5693 5692 5691 5690 5689 5687 5686 5686 5685 5685 5685 5686 5686 5686
5688 5688 5687 5687 5687 5688 5688 5688 5689 5690 5691 5691 5692 5692 5691 5691 5691 5690 5689 5689 5688 5687 5686 5686 5684 5683 5682 5680 5679 5677 5676 5675 5674 5674 5673 5673 5673 5673
5682 5681 5681 5681 5681 5681 5682 5682 5683 5684 5685 5685 5685 5685 5685 5684 5683 5683 5682 5681 5681 5679 5678 5677 5676 5674 5672 5671 5669 5667 5666 5665 5664 5662 5661 5661 5661 5661
5675 5675 5675 5675 5675 5675 5676 5676 5677 5678 5678 5678 5679 5678 5678 5677 5676 5676 5675 5674 5673 5672 5670 5669 5667 5665 5663 5661 5659 5658 5656 5655 5653 5652 5651 5650 5649 5649
5670 5669 5669 5669 5669 5669 5669 5670 5671 5672 5672 5672 5672 5671 5671 5670 5669 5669 5668 5667 5665 5664 5662 5660 5658 5656 5654 5652 5650 5648 5647 5645 5644 5642 5641 5639 5638 5638
5664 5664 5663 5663 5663 5663 5663 5664 5665 5665 5665 5665 5665 5665 5664 5663 5663 5662 5661 5659 5657 5656 5654 5652 5649 5647 5645 5644 5642 5640 5638 5637 5635 5633 5631 5630 5629 5628
5659 5658 5658 5658 5657 5657 5657 5658 5659 5659 5659 5658 5658 5658 5657 5656 5656 5655 5653 5651 5649 5647 5645 5643 5641 5639 5637 5635 5634 5632 5630 5628 5626 5624 5622 5621 5620 5619
5654 5653 5652 5652 5652 5652 5652 5652 5652 5653 5653 5652 5652 5651 5650 5649 5648 5647 5646 5644 5641 5639 5637 5635 5633 5631 5629 5627 5626 5624 5623 5621 5618 5616 5615 5613 5612 5611
5649 5648 5647 5647 5646 5646 5646 5646 5646 5647 5646 5646 5645 5644 5643 5642 5641 5640 5638 5636 5634 5632 5630 5627 5625 5623 5621 5620 5618 5616 5615 5613 5611 5609 5607 5606 5604 5603
5644 5643 5642 5642 5641 5640 5640 5640 5640 5640 5640 5639 5639 5638 5637 5636 5634 5633 5631 5629 5627 5625 5623 5620 5618 5616 5614 5612 5611 5609 5608 5606 5604 5602 5601 5599 5598 5597
5639 5638 5637 5636 5636 5635 5635 5634 5634 5634 5634 5633 5632 5632 5631 5630 5628 5627 5625 5623 5620 5618 5616 5613 5611 5609 5607 5605 5604 5603 5601 5599 5597 5596 5594 5593 5592 5590
5635 5634 5633 5632 5631 5630 5630 5629 5629 5628 5628 5627 5627 5626 5625 5624 5622 5620 5618 5616 5614 5612 5609 5607 5605 5603 5601 5600 5598 5596 5594 5593 5591 5590 5588 5587 5586 5585
5631 5630 5629 5628 5626 5625 5625 5624 5623 5623 5622 5622 5621 5620 5619 5618 5616 5614 5611 5610 5608 5606 5603 5601 5599 5597 5595 5594 5592 5591 5588 5587 5585 5584 5583 5582 5580 5579
5628 5626 5625 5623 5622 5621 5620 5619 5618 5618 5617 5616 5616 5614 5613 5612 5610 5608 5605 5603 5601 5600 5598 5596 5594 5592 5590 5588 5586 5585 5583 5582 5580 5579 5578 5577 5576 5575
5624 5623 5621 5619 5618 5616 5615 5614 5614 5613 5612 5611 5610 5609 5607 5606 5604 5602 5600 5598 5596 5594 5593 5591 5589 5587 5585 5583 5582 5580 5579 5578 5576 5574 5573 5573 5571 5570
5620 5619 5617 5616 5614 5612 5611 5610 5609 5608 5607 5606 5605 5603 5602 5600 5598 5596 5594 5592 5591 5589 5588 5586 5584 5583 5581 5579 5578 5576 5575 5573 5572 5571 5570 5568 5568 5566